User: anonymous   Login
Location: Voyageurs National Park
(48.5020°N, 92.9292°W)
Time: 09:27:17
(UTC-05:00)
Language:

Terra - Orbit

View from above orbital plane
View from above orbital plane
View from above satellite
View from above satellite

Ground track
Ground track

The orbit data is extracted from the following two-line orbital elements,

1 25994U 99068A   15115.20497000 -.00011168  00000-0 -24762-2 0  9998
2 25994 098.2135 190.4925 0001494 102.5332 257.6141 14.57050437816505
Epoch (UTC): 25 April 2015 04:55:09
Eccentricity: 0.0001494
inclination: 98.2135°
perigee height: 701 km
apogee height: 704 km
right ascension of ascending node: 190.4925°
argument of perigee: 102.5332°
revolutions per day: 14.57050437
mean anomaly at epoch: 257.6141°
orbit number at epoch: 81650

The dashed part of the orbit path shows where the satellite is in the earth's shadow,  

DLR